Terminal Aerodrome Forecast
Issued by NWS

Home | Current Version | Previous Version | Text Only | Print | Product List | Glossary On
Versions: 1 2 3 4 5 6 7 8 9 10 11 12 13 14 15
000
FTUS42 KILM 012300
TAFCRE
TAF
KCRE 012320Z 0200/0224 31005KT 6SM -RA BKN009 BKN040
     FM020300 VRB03KT 4SM BR BKN006
     FM021500 29007KT P6SM BKN020 BKN050
     FM022100 03007KT 5SM BR BKN012=

USA.gov is the U.S. government's official web portal to all federal, state and local government web resources and services.